QPF
0.02 0.02 0.03 0.03 0.04 0.06 0.08 0.10 0.12 0.09 0.10 0.09 0.08 0.06 0.05 0.06 0.06 0.05 0.04 0.05 0.05 0.06 0.10 0.12 0.10 0.09 0.09 0.09 0.08 0.08 0.08 0.09 0.09 0.07 0.09 0.11 0.11 0.10 0.08 0.07 0.05 0.04 0.05
0.07 0.05 0.05 0.05 0.04 0.05 0.05 0.05 0.05 0.05 0.10 0.11 0.12 0.08 0.04 0.03 0.04 0.04 0.05 0.05 0.06 0.06 0.09 0.11 0.13 0.14 0.14 0.16 0.16 0.13 0.13 0.12 0.11 0.07 0.07 0.08 0.10 0.10 0.09 0.08 0.08 0.06 0.05
0.11 0.10 0.10 0.08 0.08 0.07 0.05 0.04 0.03 0.05 0.08 0.08 0.08 0.06 0.04 0.03 0.02 0.03 0.04 0.04 0.04 0.05 0.06 0.08 0.11 0.14 0.17 0.23 0.28 0.24 0.17 0.12 0.09 0.06 0.07 0.07 0.08 0.08 0.08 0.08 0.09 0.09 0.07
0.07 0.10 0.09 0.09 0.08 0.06 0.06 0.05 0.04 0.04 0.05 0.06 0.05 0.04 0.04 0.03 0.02 0.02 0.03 0.04 0.04 0.04 0.05 0.06 0.08 0.10 0.11 0.14 0.22 0.25 0.18 0.13 0.11 0.08 0.06 0.06 0.06 0.07 0.07 0.07 0.08 0.08 0.07
0.05 0.05 0.07 0.09 0.11 0.09 0.08 0.08 0.07 0.06 0.06 0.07 0.07 0.06 0.05 0.04 0.02 0.02 0.03 0.05 0.06 0.04 0.04 0.05 0.06 0.07 0.09 0.11 0.17 0.21 0.17 0.13 0.12 0.12 0.10 0.07 0.06 0.07 0.06 0.06 0.06 0.06 0.06
0.04 0.03 0.04 0.04 0.05 0.05 0.08 0.10 0.11 0.06 0.04 0.07 0.09 0.10 0.08 0.05 0.03 0.03 0.03 0.05 0.04 0.03 0.03 0.03 0.03 0.05 0.06 0.08 0.13 0.18 0.15 0.13 0.11 0.10 0.10 0.10 0.09 0.08 0.06 0.05 0.05 0.05 0.06
0.02 0.02 0.03 0.04 0.03 0.04 0.05 0.05 0.05 0.03 0.02 0.04 0.07 0.09 0.09 0.05 0.03 0.03 0.03 0.03 0.03 0.03 0.03 0.02 0.03 0.03 0.04 0.08 0.10 0.10 0.09 0.10 0.08 0.08 0.07 0.08 0.09 0.08 0.06 0.06 0.05 0.05 0.04
0.03 0.03 0.03 0.02 0.03 0.05 0.05 0.04 0.03 0.03 0.03 0.03 0.06 0.07 0.07 0.05 0.03 0.02 0.03 0.04 0.03 0.03 0.03 0.03 0.04 0.05 0.06 0.08 0.13 0.09 0.07 0.08 0.08 0.08 0.08 0.08 0.09 0.09 0.07 0.06 0.05 0.05 0.05
0.04 0.04 0.04 0.03 0.03 0.04 0.04 0.04 0.04 0.03 0.03 0.03 0.05 0.06 0.05 0.06 0.04 0.03 0.03 0.05 0.05 0.03 0.03 0.03 0.04 0.04 0.04 0.04 0.09 0.09 0.08 0.07 0.07 0.07 0.06 0.08 0.12 0.14 0.13 0.11 0.07 0.06 0.06
0.03 0.04 0.05 0.04 0.04 0.03 0.03 0.04 0.03 0.03 0.03 0.03 0.04 0.04 0.03 0.04 0.05 0.05 0.03 0.05 0.06 0.05 0.03 0.03 0.03 0.03 0.03 0.03 0.05 0.09 0.06 0.08 0.07 0.06 0.06 0.06 0.08 0.10 0.11 0.11 0.08 0.06 0.05
0.02 0.02 0.03 0.04 0.04 0.04 0.04 0.05 0.04 0.03 0.03 0.02 0.03 0.03 0.03 0.03 0.04 0.05 0.05 0.04 0.05 0.06 0.05 0.03 0.03 0.02 0.02 0.03 0.04 0.08 0.06 0.07 0.07 0.06 0.06 0.06 0.05 0.06 0.07 0.06 0.05 0.04 0.04
0.02 0.04 0.04 0.03 0.04 0.06 0.07 0.06 0.04 0.04 0.04 0.03 0.03 0.04 0.05 0.05 0.06 0.06 0.06 0.06 0.07 0.07 0.08 0.06 0.05 0.03 0.03 0.03 0.04 0.08 0.09 0.07 0.06 0.06 0.06 0.06 0.07 0.07 0.08 0.07 0.06 0.05 0.04
0.02 0.03 0.04 0.03 0.04 0.05 0.07 0.07 0.04 0.04 0.06 0.07 0.05 0.05 0.06 0.07 0.06 0.06 0.06 0.06 0.06 0.06 0.06 0.06 0.05 0.04 0.04 0.05 0.08 0.12 0.12 0.12 0.11 0.10 0.09 0.08 0.08 0.09 0.09 0.08 0.07 0.05 0.05
0.02 0.03 0.04 0.03 0.03 0.04 0.05 0.06 0.05 0.05 0.07 0.07 0.06 0.05 0.05 0.05 0.03 0.02 0.03 0.04 0.04 0.03 0.05 0.05 0.04 0.05 0.06 0.06 0.11 0.13 0.09 0.11 0.11 0.10 0.08 0.06 0.06 0.05 0.05 0.05 0.05 0.05 0.04
0.03 0.04 0.04 0.03 0.04 0.05 0.06 0.05 0.04 0.04 0.05 0.05 0.05 0.04 0.05 0.04 0.04 0.03 0.03 0.04 0.05 0.04 0.04 0.05 0.05 0.05 0.05 0.04 0.06 0.05 0.04 0.05 0.05 0.05 0.05 0.05 0.04 0.04 0.04 0.04 0.03 0.03 0.04
0.03 0.04 0.05 0.05 0.05 0.05 0.05 0.04 0.03 0.04 0.04 0.05 0.04 0.03 0.03 0.03 0.03 0.03 0.03 0.03 0.05 0.04 0.04 0.05 0.06 0.05 0.05 0.03 0.03 0.02 0.04 0.05 0.04 0.04 0.04 0.04 0.04 0.03 0.02 0.02 0.03 0.03 0.03
0.03 0.04 0.06 0.07 0.07 0.05 0.06 0.05 0.05 0.05 0.05 0.04 0.03 0.02 0.02 0.02 0.02 0.02 0.03 0.04 0.04 0.04 0.03 0.03 0.04 0.05 0.05 0.04 0.04 0.04 0.03 0.04 0.04 0.04 0.03 0.04 0.04 0.04 0.03 0.03 0.02 0.03 0.03
0.05 0.06 0.08 0.07 0.07 0.06 0.08 0.07 0.06 0.04 0.03 0.03 0.02 0.01 0.01 0.01 0.01 0.02 0.03 0.03 0.03 0.04 0.03 0.03 0.03 0.03 0.05 0.04 0.04 0.06 0.04 0.03 0.04 0.04 0.03 0.03 0.03 0.04 0.05 0.04 0.03 0.04 0.04
0.06 0.07 0.08 0.08 0.07 0.07 0.09 0.08 0.06 0.04 0.03 0.02 0.02 0.02 0.02 0.02 0.01 0.01 0.01 0.02 0.02 0.03 0.03 0.03 0.03 0.03 0.06 0.06 0.05 0.06 0.04 0.03 0.03 0.04 0.04 0.04 0.04 0.05 0.05 0.04 0.04 0.04 0.05
0.06 0.07 0.09 0.07 0.05 0.05 0.04 0.03 0.03 0.03 0.04 0.05 0.04 0.03 0.03 0.02 0.02 0.01 0.01 0.01 0.02 0.02 0.02 0.02 0.02 0.02 0.05 0.07 0.06 0.09 0.09 0.05 0.03 0.03 0.03 0.03 0.04 0.05 0.06 0.07 0.07 0.07 0.07
0.04 0.04 0.05 0.05 0.03 0.02 0.02 0.02 0.02 0.03 0.04 0.04 0.03 0.02 0.02 0.02 0.01 0.01 0.01 0.01 0.01 0.01 0.01 0.01 0.02 0.02 0.02 0.04 0.07 0.09 0.10 0.09 0.06 0.04 0.03 0.03 0.04 0.04 0.05 0.07 0.08 0.10 0.11
0.03 0.03 0.02 0.02 0.02 0.02 0.02 0.03 0.03 0.04 0.04 0.04 0.03 0.02 0.02 0.01 0.01 0.01 0.02 0.01 0.01 0.01 0.01 0.01 0.01 0.01 0.02 0.03 0.06 0.08 0.08 0.07 0.06 0.05 0.03 0.03 0.04 0.03 0.04 0.05 0.08 0.10 0.11
0.02 0.02 0.02 0.02 0.02 0.02 0.02 0.02 0.02 0.02 0.03 0.03 0.03 0.02 0.02 0.02 0.01 0.01 0.01 0.01 0.01 0.00 0.00 0.00 0.00 0.01 0.01 0.02 0.04 0.06 0.06 0.05 0.04 0.05 0.05 0.03 0.03 0.03 0.03 0.05 0.07 0.09 0.11
0.01 0.02 0.03 0.03 0.02 0.02 0.01 0.01 0.01 0.01 0.02 0.02 0.02 0.02 0.02 0.01 0.01 0.01 0.01 0.00 0.00 0.00 0.00 0.01 0.01 0.01 0.01 0.03 0.05 0.07 0.07 0.07 0.06 0.04 0.05 0.05 0.03 0.03 0.04 0.05 0.06 0.07 0.09
0.02 0.03 0.04 0.03 0.02 0.01 0.01 0.01 0.01 0.01 0.01 0.02 0.01 0.01 0.01 0.01 0.01 0.01 0.01 0.01 0.00 0.00 0.01 0.01 0.02 0.02 0.03 0.04 0.05 0.08 0.10 0.09 0.07 0.06 0.05 0.05 0.04 0.03 0.04 0.05 0.06 0.06 0.07
0.04 0.04 0.03 0.02 0.01 0.01 0.01 0.01 0.01 0.00 0.01 0.01 0.01 0.01 0.01 0.01 0.01 0.01 0.01 0.00 0.01 0.00 0.00 0.01 0.02 0.02 0.01 0.03 0.05 0.05 0.06 0.07 0.06 0.06 0.05 0.04 0.03 0.03 0.04 0.04 0.05 0.06 0.07
MSLP
998.29 998.83 999.37 999.92 1000.48 1001.08 1001.74 1002.46 1003.26 1004.12 1004.98 1005.82 1006.60 1007.29 1007.89 1008.41 1008.87 1009.29 1009.71 1010.14 1010.58 1011.03 1011.46 1011.87 1012.24 1012.56 1012.85 1013.11 1013.35 1013.59 1013.83 1014.07 1014.32 1014.57 1014.82 1015.08 1015.33 1015.58 1015.81 1016.05 1016.26 1016.47 1016.66
999.50 999.91 1000.34 1000.78 1001.27 1001.80 1002.40 1003.09 1003.86 1004.68 1005.52 1006.33 1007.08 1007.74 1008.30 1008.77 1009.17 1009.54 1009.90 1010.27 1010.66 1011.07 1011.48 1011.88 1012.25 1012.58 1012.87 1013.12 1013.34 1013.55 1013.74 1013.94 1014.15 1014.37 1014.60 1014.83 1015.07 1015.30 1015.52 1015.72 1015.91 1016.09 1016.27
1000.65 1000.96 1001.31 1001.69 1002.12 1002.61 1003.18 1003.84 1004.57 1005.35 1006.16 1006.93 1007.64 1008.27 1008.79 1009.22 1009.58 1009.89 1010.19 1010.50 1010.83 1011.18 1011.56 1011.93 1012.28 1012.60 1012.88 1013.11 1013.31 1013.47 1013.63 1013.79 1013.95 1014.13 1014.32 1014.53 1014.74 1014.95 1015.15 1015.33 1015.50 1015.67 1015.82
1001.74 1001.99 1002.29 1002.63 1003.03 1003.49 1004.03 1004.65 1005.33 1006.07 1006.82 1007.55 1008.23 1008.81 1009.30 1009.70 1010.01 1010.28 1010.52 1010.77 1011.04 1011.33 1011.65 1011.98 1012.29 1012.58 1012.83 1013.03 1013.20 1013.33 1013.44 1013.56 1013.67 1013.81 1013.97 1014.14 1014.33 1014.52 1014.70 1014.88 1015.04 1015.19 1015.33
1002.77 1002.99 1003.27 1003.59 1003.97 1004.41 1004.91 1005.47 1006.10 1006.77 1007.46 1008.13 1008.75 1009.30 1009.76 1010.13 1010.42 1010.65 1010.84 1011.03 1011.24 1011.46 1011.71 1011.98 1012.24 1012.48 1012.69 1012.85 1012.98 1013.07 1013.14 1013.20 1013.28 1013.38 1013.50 1013.65 1013.82 1013.99 1014.17 1014.34 1014.50 1014.66 1014.81
1003.74 1003.95 1004.22 1004.54 1004.90 1005.30 1005.76 1006.26 1006.81 1007.40 1008.01 1008.61 1009.18 1009.69 1010.12 1010.47 1010.74 1010.95 1011.10 1011.24 1011.38 1011.54 1011.71 1011.90 1012.09 1012.26 1012.41 1012.53 1012.60 1012.65 1012.67 1012.70 1012.74 1012.80 1012.90 1013.03 1013.19 1013.36 1013.54 1013.72 1013.89 1014.06 1014.23
1004.61 1004.83 1005.10 1005.42 1005.76 1006.14 1006.54 1006.97 1007.44 1007.94 1008.45 1008.98 1009.49 1009.96 1010.37 1010.70 1010.96 1011.14 1011.27 1011.36 1011.43 1011.51 1011.60 1011.70 1011.80 1011.90 1011.98 1012.03 1012.05 1012.05 1012.03 1012.02 1012.03 1012.07 1012.15 1012.27 1012.42 1012.60 1012.80 1012.99 1013.19 1013.38 1013.57
1005.37 1005.60 1005.88 1006.19 1006.52 1006.86 1007.21 1007.58 1007.96 1008.36 1008.79 1009.24 1009.69 1010.12 1010.50 1010.82 1011.06 1011.22 1011.32 1011.36 1011.37 1011.36 1011.36 1011.36 1011.37 1011.38 1011.38 1011.36 1011.32 1011.27 1011.21 1011.17 1011.15 1011.18 1011.25 1011.37 1011.53 1011.72 1011.93 1012.15 1012.37 1012.58 1012.80
1005.97 1006.21 1006.49 1006.80 1007.13 1007.44 1007.75 1008.05 1008.36 1008.68 1009.03 1009.41 1009.80 1010.18 1010.53 1010.83 1011.05 1011.18 1011.24 1011.23 1011.16 1011.08 1010.98 1010.88 1010.79 1010.70 1010.62 1010.53 1010.43 1010.33 1010.24 1010.17 1010.13 1010.14 1010.21 1010.33 1010.50 1010.71 1010.93 1011.17 1011.41 1011.65 1011.88
1006.39 1006.63 1006.92 1007.24 1007.56 1007.86 1008.14 1008.39 1008.64 1008.90 1009.19 1009.50 1009.83 1010.16 1010.47 1010.73 1010.92 1011.02 1011.03 1010.96 1010.82 1010.65 1010.46 1010.26 1010.07 1009.90 1009.73 1009.57 1009.41 1009.27 1009.15 1009.05 1009.00 1009.01 1009.07 1009.20 1009.37 1009.58 1009.82 1010.07 1010.32 1010.56 1010.81
1006.65 1006.89 1007.19 1007.50 1007.82 1008.11 1008.37 1008.61 1008.82 1009.03 1009.26 1009.51 1009.79 1010.07 1010.33 1010.54 1010.69 1010.73 1010.69 1010.55 1010.35 1010.10 1009.82 1009.54 1009.26 1009.01 1008.77 1008.55 1008.34 1008.16 1008.01 1007.90 1007.83 1007.83 1007.89 1008.01 1008.19 1008.40 1008.63 1008.88 1009.12 1009.37 1009.61
1006.79 1007.03 1007.31 1007.63 1007.94 1008.23 1008.48 1008.69 1008.88 1009.06 1009.24 1009.45 1009.67 1009.89 1010.09 1010.25 1010.33 1010.33 1010.22 1010.03 1009.76 1009.44 1009.09 1008.74 1008.41 1008.09 1007.80 1007.53 1007.29 1007.08 1006.90 1006.77 1006.69 1006.67 1006.72 1006.83 1007.00 1007.19 1007.41 1007.65 1007.88 1008.11 1008.34
1006.87 1007.09 1007.36 1007.66 1007.96 1008.24 1008.48 1008.68 1008.84 1008.98 1009.13 1009.28 1009.44 1009.60 1009.74 1009.84 1009.86 1009.80 1009.64 1009.39 1009.08 1008.71 1008.32 1007.93 1007.55 1007.20 1006.88 1006.58 1006.32 1006.08 1005.89 1005.74 1005.64 1005.60 1005.63 1005.72 1005.86 1006.03 1006.23 1006.44 1006.65 1006.86 1007.07
1006.96 1007.15 1007.39 1007.66 1007.94 1008.19 1008.40 1008.57 1008.71 1008.81 1008.91 1009.01 1009.11 1009.21 1009.29 1009.32 1009.29 1009.17 1008.97 1008.69 1008.34 1007.95 1007.55 1007.14 1006.75 1006.39 1006.06 1005.76 1005.48 1005.24 1005.02 1004.85 1004.73 1004.66 1004.66 1004.71 1004.81 1004.96 1005.13 1005.31 1005.50 1005.68 1005.87
1007.11 1007.26 1007.45 1007.68 1007.90 1008.11 1008.28 1008.41 1008.50 1008.56 1008.61 1008.65 1008.70 1008.73 1008.75 1008.73 1008.65 1008.49 1008.26 1007.96 1007.60 1007.21 1006.81 1006.42 1006.05 1005.70 1005.39 1005.09 1004.82 1004.57 1004.34 1004.14 1003.98 1003.88 1003.83 1003.84 1003.90 1004.01 1004.15 1004.30 1004.47 1004.64 1004.82
1007.34 1007.44 1007.58 1007.74 1007.91 1008.05 1008.16 1008.23 1008.26 1008.26 1008.25 1008.24 1008.23 1008.21 1008.18 1008.11 1007.99 1007.80 1007.56 1007.25 1006.91 1006.53 1006.16 1005.80 1005.46 1005.15 1004.86 1004.59 1004.32 1004.07 1003.82 1003.60 1003.40 1003.24 1003.14 1003.10 1003.11 1003.18 1003.30 1003.44 1003.60 1003.76 1003.93
1007.65 1007.70 1007.78 1007.88 1007.97 1008.04 1008.07 1008.07 1008.03 1007.97 1007.90 1007.83 1007.77 1007.71 1007.63 1007.53 1007.38 1007.18 1006.93 1006.63 1006.30 1005.95 1005.61 1005.29 1004.99 1004.72 1004.46 1004.22 1003.97 1003.71 1003.45 1003.19 1002.94 1002.73 1002.57 1002.47 1002.44 1002.47 1002.56 1002.70 1002.86 1003.03 1003.21
1008.00 1008.01 1008.04 1008.06 1008.08 1008.08 1008.03 1007.96 1007.85 1007.73 1007.61 1007.50 1007.39 1007.29 1007.19 1007.06 1006.90 1006.69 1006.43 1006.14 1005.81 1005.49 1005.17 1004.88 1004.62 1004.39 1004.17 1003.95 1003.71 1003.45 1003.16 1002.86 1002.57 1002.29 1002.07 1001.91 1001.83 1001.84 1001.92 1002.05 1002.22 1002.41 1002.60
1008.34 1008.32 1008.31 1008.29 1008.25 1008.17 1008.07 1007.93 1007.76 1007.59 1007.43 1007.28 1007.14 1007.02 1006.90 1006.76 1006.58 1006.36 1006.09 1005.79 1005.47 1005.15 1004.85 1004.58 1004.34 1004.13 1003.93 1003.73 1003.50 1003.23 1002.92 1002.58 1002.23 1001.90 1001.61 1001.39 1001.27 1001.24 1001.31 1001.45 1001.64 1001.84 1002.04
1008.63 1008.61 1008.57 1008.52 1008.44 1008.32 1008.16 1007.98 1007.77 1007.57 1007.37 1007.21 1007.06 1006.93 1006.80 1006.64 1006.45 1006.22 1005.93 1005.61 1005.28 1004.94 1004.63 1004.36 1004.13 1003.92 1003.73 1003.53 1003.30 1003.02 1002.68 1002.30 1001.90 1001.50 1001.16 1000.89 1000.72 1000.66 1000.72 1000.86 1001.06 1001.27 1001.47
1008.88 1008.85 1008.81 1008.74 1008.64 1008.50 1008.32 1008.10 1007.88 1007.65 1007.45 1007.28 1007.14 1007.01 1006.87 1006.71 1006.50 1006.25 1005.93 1005.58 1005.21 1004.85 1004.51 1004.22 1003.97 1003.76 1003.56 1003.35 1003.10 1002.80 1002.44 1002.02 1001.56 1001.11 1000.71 1000.39 1000.18 1000.09 1000.13 1000.26 1000.46 1000.67 1000.84
1009.08 1009.06 1009.02 1008.96 1008.85 1008.70 1008.51 1008.29 1008.06 1007.84 1007.64 1007.48 1007.35 1007.22 1007.09 1006.92 1006.70 1006.42 1006.07 1005.68 1005.27 1004.86 1004.48 1004.15 1003.87 1003.64 1003.42 1003.19 1002.92 1002.59 1002.20 1001.73 1001.24 1000.74 1000.28 999.91 999.66 999.54 999.56 999.67 999.85 1000.03 1000.16
1009.27 1009.26 1009.23 1009.17 1009.07 1008.92 1008.73 1008.51 1008.29 1008.08 1007.90 1007.76 1007.64 1007.53 1007.40 1007.23 1007.00 1006.69 1006.31 1005.88 1005.42 1004.97 1004.54 1004.17 1003.85 1003.58 1003.33 1003.07 1002.77 1002.42 1001.98 1001.49 1000.94 1000.40 999.90 999.49 999.20 999.05 999.03 999.11 999.25 999.39 999.46
1009.49 1009.48 1009.46 1009.40 1009.29 1009.14 1008.96 1008.75 1008.54 1008.35 1008.20 1008.07 1007.97 1007.88 1007.76 1007.59 1007.35 1007.02 1006.61 1006.14 1005.65 1005.15 1004.68 1004.27 1003.91 1003.60 1003.32 1003.03 1002.70 1002.31 1001.84 1001.31 1000.73 1000.15 999.61 999.16 998.83 998.64 998.59 998.63 998.72 998.80 998.80
1009.78 1009.76 1009.72 1009.65 1009.54 1009.39 1009.20 1009.00 1008.80 1008.63 1008.49 1008.38 1008.30 1008.22 1008.11 1007.94 1007.69 1007.35 1006.93 1006.44 1005.92 1005.40 1004.90 1004.45 1004.06 1003.72 1003.40 1003.08 1002.71 1002.29 1001.79 1001.22 1000.61 1000.00 999.43 998.95 998.60 998.38 998.28 998.28 998.32 998.34 998.27
1010.15 1010.10 1010.04 1009.94 1009.82 1009.65 1009.46 1009.26 1009.06 1008.90 1008.77 1008.68 1008.61 1008.53 1008.42 1008.26 1008.01 1007.67 1007.25 1006.75 1006.23 1005.69 1005.18 1004.72 1004.30 1003.94 1003.59 1003.23 1002.83 1002.37 1001.84 1001.25 1000.62 999.98 999.40 998.90 998.52 998.27 998.14 998.11 998.10 998.07 997.94
Thickness
5755 5755 5755 5755 5755 5755 5755 5755 5755 5755 5755 5754 5754 5754 5753 5753 5752 5753 5753 5754 5753 5753 5753 5753 5752 5752 5751 5750 5748 5747 5745 5744 5742 5740 5739 5738 5736 5735 5733 5731 5730 5728 5726
5754 5754 5753 5753 5753 5754 5753 5754 5753 5753 5753 5753 5753 5753 5752 5752 5752 5752 5752 5752 5753 5752 5752 5751 5751 5751 5751 5750 5748 5746 5745 5743 5741 5740 5739 5737 5736 5735 5733 5732 5730 5728 5726
5753 5752 5751 5751 5751 5751 5751 5751 5751 5751 5750 5750 5750 5750 5751 5750 5750 5750 5750 5750 5750 5750 5750 5750 5750 5749 5749 5749 5747 5746 5744 5742 5740 5739 5738 5737 5735 5734 5733 5731 5729 5728 5725
5751 5750 5749 5749 5749 5749 5749 5748 5748 5747 5747 5747 5747 5748 5748 5748 5748 5748 5748 5748 5748 5748 5748 5748 5748 5748 5747 5747 5746 5745 5743 5741 5739 5738 5737 5735 5734 5733 5731 5730 5728 5726 5725
5749 5748 5747 5746 5746 5746 5745 5746 5745 5744 5743 5743 5744 5745 5745 5745 5746 5746 5746 5745 5745 5745 5745 5745 5745 5745 5744 5744 5744 5743 5741 5740 5739 5737 5735 5734 5733 5731 5730 5729 5727 5725 5723
5747 5746 5745 5745 5744 5743 5742 5742 5741 5741 5740 5740 5741 5741 5741 5742 5742 5742 5742 5743 5742 5742 5742 5742 5742 5741 5741 5741 5741 5741 5739 5738 5737 5735 5734 5732 5731 5729 5728 5727 5725 5723 5722
5745 5744 5743 5742 5741 5740 5739 5738 5738 5736 5736 5736 5734 5734 5736 5737 5738 5738 5739 5739 5739 5739 5739 5739 5738 5738 5737 5737 5737 5737 5736 5735 5734 5733 5731 5730 5729 5727 5726 5724 5723 5721 5720
5743 5742 5740 5739 5738 5737 5736 5735 5734 5732 5731 5731 5729 5726 5725 5727 5732 5735 5734 5735 5735 5735 5735 5735 5735 5734 5734 5734 5734 5733 5733 5732 5731 5730 5729 5728 5727 5726 5724 5723 5721 5719 5718
5740 5739 5738 5737 5735 5734 5733 5732 5731 5729 5726 5726 5726 5723 5718 5717 5721 5726 5729 5730 5730 5730 5731 5731 5731 5730 5730 5730 5729 5729 5729 5729 5728 5727 5726 5725 5724 5722 5721 5720 5719 5718 5717
5737 5736 5735 5734 5732 5731 5729 5729 5728 5726 5724 5721 5721 5721 5721 5719 5716 5716 5721 5724 5725 5725 5725 5726 5726 5726 5726 5725 5725 5725 5724 5724 5724 5723 5722 5721 5720 5719 5718 5716 5715 5715 5714
5735 5733 5732 5730 5729 5727 5726 5725 5724 5723 5721 5719 5717 5716 5715 5714 5714 5711 5711 5715 5717 5719 5720 5720 5721 5721 5721 5721 5721 5721 5721 5721 5720 5719 5718 5717 5716 5715 5714 5713 5712 5712 5711
5732 5731 5729 5727 5725 5724 5722 5721 5720 5719 5717 5716 5715 5714 5712 5710 5709 5708 5706 5707 5708 5711 5714 5715 5716 5716 5716 5716 5716 5716 5716 5716 5716 5715 5713 5712 5712 5711 5710 5709 5709 5708 5708
5728 5727 5726 5724 5722 5721 5719 5718 5716 5714 5713 5712 5711 5710 5710 5709 5708 5706 5704 5702 5702 5705 5707 5709 5710 5711 5711 5711 5711 5711 5711 5711 5711 5710 5709 5708 5707 5706 5705 5705 5705 5704 5705
5725 5724 5723 5721 5720 5718 5716 5714 5713 5711 5709 5708 5707 5706 5705 5705 5705 5704 5701 5699 5697 5698 5700 5702 5704 5705 5706 5706 5706 5706 5706 5706 5705 5704 5703 5702 5702 5701 5700 5700 5700 5700 5700
5722 5721 5719 5718 5716 5715 5713 5711 5708 5707 5705 5704 5703 5702 5701 5701 5701 5700 5699 5698 5694 5691 5692 5696 5697 5700 5700 5701 5701 5700 5700 5700 5700 5699 5698 5697 5696 5695 5695 5695 5695 5696 5696
5719 5717 5716 5714 5713 5711 5709 5707 5704 5702 5701 5699 5698 5697 5697 5696 5696 5695 5694 5693 5692 5689 5687 5690 5691 5692 5693 5695 5695 5695 5695 5695 5694 5693 5692 5691 5690 5689 5689 5689 5690 5691 5692
5716 5714 5712 5710 5708 5706 5704 5702 5699 5698 5696 5695 5694 5693 5691 5691 5690 5689 5689 5687 5686 5684 5682 5683 5684 5686 5686 5687 5687 5688 5688 5688 5687 5687 5686 5685 5684 5684 5684 5684 5685 5686 5687
5712 5710 5708 5706 5704 5702 5699 5697 5695 5693 5691 5690 5689 5688 5686 5686 5684 5684 5682 5681 5680 5679 5677 5675 5677 5677 5677 5679 5679 5680 5681 5681 5681 5681 5680 5679 5678 5678 5678 5678 5679 5680 5681
5707 5705 5703 5701 5699 5696 5695 5692 5690 5688 5686 5685 5684 5682 5681 5680 5679 5678 5677 5675 5674 5674 5671 5670 5669 5669 5669 5670 5671 5672 5673 5673 5673 5673 5673 5672 5672 5671 5671 5671 5672 5674 5675
5702 5700 5698 5696 5693 5692 5690 5688 5686 5683 5682 5680 5679 5678 5676 5675 5674 5673 5671 5669 5667 5666 5664 5663 5662 5661 5661 5662 5662 5663 5663 5664 5664 5665 5664 5664 5664 5664 5664 5664 5665 5667 5668
5697 5695 5693 5690 5688 5686 5685 5682 5680 5678 5676 5675 5673 5672 5672 5671 5669 5667 5666 5663 5661 5658 5657 5655 5654 5653 5652 5652 5652 5653 5653 5653 5654 5655 5655 5655 5655 5656 5656 5657 5658 5659 5661
5691 5689 5686 5684 5682 5681 5679 5677 5674 5672 5670 5668 5666 5665 5665 5664 5662 5661 5659 5657 5655 5652 5649 5647 5646 5644 5644 5644 5643 5644 5643 5644 5645 5646 5645 5646 5647 5647 5647 5648 5650 5652 5653
5684 5682 5680 5678 5675 5674 5673 5671 5668 5665 5663 5660 5659 5657 5657 5656 5654 5652 5650 5649 5647 5645 5643 5640 5638 5637 5636 5636 5636 5635 5634 5635 5636 5637 5636 5637 5638 5638 5640 5641 5641 5643 5645
5678 5676 5673 5670 5668 5667 5666 5664 5662 5659 5656 5654 5652 5650 5648 5646 5645 5643 5642 5640 5638 5637 5635 5633 5631 5630 5630 5629 5628 5627 5626 5626 5627 5627 5627 5628 5629 5629 5631 5632 5633 5634 5636
5673 5670 5668 5665 5662 5660 5659 5657 5655 5652 5649 5646 5645 5643 5641 5639 5637 5636 5634 5632 5630 5629 5628 5626 5624 5623 5622 5621 5620 5619 5617 5618 5619 5619 5618 5618 5620 5620 5621 5623 5624 5625 5627
5668 5665 5663 5660 5657 5654 5652 5651 5648 5645 5642 5639 5637 5636 5634 5632 5630 5628 5626 5623 5622 5621 5619 5618 5616 5615 5614 5613 5612 5611 5611 5610 5610 5611 5611 5610 5611 5611 5613 5614 5615 5617 5618